Tracking 19706 objects as of 15-Jun-2019
HD Live streaming from Space Station
objects crossing your sky now

SCOUT A DEB

Track SCOUT A DEB now!
10-day predictions


NORAD ID: 3214
Int'l Code: 1968-012D
Perigee: 1,019.1 km
Apogee: 1,300.3 km
Inclination: 90.0 °
Period: 108.4 minutes
Semi major axis: 7530 km
RCS: 0.049 m2 (small)
Launch date: March 2, 1968
Source: United States (US)
Launch site: AIR FORCE WESTERN TEST RANGE (AFWTR)

Note: This is SATELLITE DEBRIS
aabbcc
Your satellite tracking list
Your tracking list is empty




NASA's NSSDC Master Catalog

Two Line Element Set (TLE):
1  3214U 68012D   19165.62784428  .00000105  00000-0  19019-3 0  9999
2  3214  89.9509 132.4909 0186690 189.7285 232.9627 13.28463133481109
Source of the keplerian elements: AFSPC